TimeMDT,TemperatureF,Dew PointF,Humidity,Sea Level PressureIn,VisibilityMPH,Wind Direction,Wind SpeedMPH,Gust SpeedMPH,PrecipitationIn,Events,Conditions,WindDirDegrees,DateUTC
12:18 AM,17.6,15.8,93,30.18,2.0,SW,10.4,-,0.00,Snow,Light Snow,220,2013-04-23 06:18:00
12:32 AM,17.6,15.8,93,30.17,3.0,SW,8.1,-,0.00,Snow,Light Snow,220,2013-04-23 06:32:00
12:49 AM,17.6,15.8,93,30.17,4.0,SW,9.2,-,0.00,Snow,Light Snow,220,2013-04-23 06:49:00
12:53 AM,18.0,15.1,88,30.26,4.0,SW,8.1,-,0.00,Snow,Light Snow,220,2013-04-23 06:53:00
1:05 AM,17.6,14.0,86,30.18,2.5,SW,10.4,-,0.00,Snow,Light Snow,230,2013-04-23 07:05:00
1:28 AM,17.6,14.0,86,30.18,1.8,SW,6.9,-,0.00,Snow,Light Snow,220,2013-04-23 07:28:00
1:37 AM,17.6,14.0,86,30.18,2.0,SW,5.8,-,0.00,Snow,Light Snow,220,2013-04-23 07:37:00
1:46 AM,17.6,14.0,86,30.18,1.8,SW,5.8,-,0.00,Snow,Light Snow,230,2013-04-23 07:46:00
1:53 AM,17.1,14.0,88,30.27,2.5,SW,6.9,-,0.00,Snow,Light Snow,230,2013-04-23 07:53:00
2:01 AM,17.6,12.2,79,30.17,3.0,SW,8.1,-,0.00,Snow,Light Snow,230,2013-04-23 08:01:00
2:39 AM,12.2,8.6,85,30.17,8.0,SSW,6.9,-,0.00,,Overcast,210,2013-04-23 08:39:00
2:53 AM,12.0,9.0,88,30.30,10.0,SSW,4.6,-,0.00,,Overcast,200,2013-04-23 08:53:00
3:18 AM,12.2,10.4,92,30.17,10.0,SSW,3.5,-,N/A,,Overcast,210,2013-04-23 09:18:00
3:53 AM,14.0,10.4,86,30.17,10.0,SW,3.5,-,N/A,,Overcast,220,2013-04-23 09:53:00
4:53 AM,14.0,10.0,84,30.28,10.0,South,4.6,-,N/A,,Overcast,180,2013-04-23 10:53:00
5:11 AM,12.2,10.4,92,30.17,10.0,SSW,3.5,-,N/A,,Overcast,200,2013-04-23 11:11:00
5:38 AM,1.4,-2.2,85,30.17,10.0,NNW,10.4,-,N/A,,Scattered Clouds,340,2013-04-23 11:38:00
5:53 AM,1.0,-2.0,87,30.35,10.0,North,10.4,-,N/A,,Clear,350,2013-04-23 11:53:00
6:53 AM,-2.9,-7.1,82,30.39,9.0,Calm,Calm,-,N/A,,Clear,0,2013-04-23 12:53:00
7:53 AM,3.0,-0.0,87,30.38,10.0,North,4.6,-,N/A,,Scattered Clouds,10,2013-04-23 13:53:00
8:02 AM,3.2,-0.4,85,30.20,10.0,Calm,Calm,-,N/A,,Mostly Cloudy,0,2013-04-23 14:02:00
8:46 AM,6.8,3.2,85,30.20,9.0,Calm,Calm,-,N/A,,Scattered Clouds,0,2013-04-23 14:46:00
8:53 AM,3.9,-0.0,84,30.39,9.0,Calm,Calm,-,N/A,,Partly Cloudy,0,2013-04-23 14:53:00
9:53 AM,10.0,6.1,84,30.36,10.0,Calm,Calm,-,N/A,,Clear,0,2013-04-23 15:53:00
10:53 AM,18.0,10.9,74,30.32,10.0,East,3.5,-,N/A,,Clear,80,2013-04-23 16:53:00
11:53 AM,19.0,12.9,77,30.31,10.0,Calm,Calm,-,N/A,,Clear,0,2013-04-23 17:53:00
12:53 PM,21.0,14.0,74,30.28,10.0,Calm,Calm,-,N/A,,Clear,0,2013-04-23 18:53:00
1:53 PM,23.0,16.0,74,30.26,10.0,SW,4.6,-,N/A,,Clear,220,2013-04-23 19:53:00
2:53 PM,27.0,18.0,69,30.25,10.0,Variable,3.5,-,N/A,,Clear,0,2013-04-23 20:53:00
3:53 PM,32.0,18.0,56,30.19,10.0,Calm,Calm,-,N/A,,Clear,0,2013-04-23 21:53:00
4:53 PM,34.0,18.0,52,30.16,10.0,Calm,Calm,-,N/A,,Clear,0,2013-04-23 22:53:00
5:53 PM,35.1,16.0,46,30.21,10.0,Calm,Calm,-,N/A,,Partly Cloudy,0,2013-04-23 23:53:00
6:53 PM,35.1,15.1,44,30.23,10.0,North,11.5,-,N/A,,Clear,350,2013-04-24 00:53:00
7:53 PM,32.0,17.1,54,30.21,10.0,North,9.2,-,N/A,,Clear,360,2013-04-24 01:53:00
8:53 PM,28.9,19.0,67,30.24,10.0,North,8.1,-,N/A,,Clear,350,2013-04-24 02:53:00
9:53 PM,28.9,19.9,69,30.23,10.0,NNW,9.2,-,N/A,,Clear,340,2013-04-24 03:53:00
10:53 PM,28.0,19.9,72,30.20,10.0,NW,6.9,-,N/A,,Partly Cloudy,310,2013-04-24 04:53:00
11:53 PM,27.0,18.0,69,30.21,10.0,NW,5.8,-,N/A,,Clear,320,2013-04-24 05:53:00